Nenana, AK

2:26 PM AKDT on August 29, 2016 (GMT -0800)
Nenana Municipal

Weather History for PANN - January, 2013

Change the Weather History Date:

Wednesday, January 2, 2013

  Actual Average Record
Temperature  
Mean Temperature 21 °F -  
Max Temperature 44 °F 3 °F 54 °F (1981)
Min Temperature -2 °F -15 °F -49 °F (2009)
Degree Days  
Heating Degree Days 44    
Moisture  
Dew Point 6 °F    
Average Humidity 80    
Maximum Humidity 94    
Minimum Humidity 65    
Precipitation  
Precipitation 0.35 in - - ()
Sea Level Pressure  
Sea Level Pressure 29.45 in    
Wind  
Wind Speed 4 mph (WNW)    
Max Wind Speed 18 mph    
Max Gust Speed -    
Visibility 10 miles    
Events Rain    
Averages and records for this station are not official NWS values.
T = Trace of Precipitation, MM = Missing Value Source: NWS Daily Summary

Daily Weather History Graph

Daily Weather History Graph

Search for Another Location

Airport or City:

Trip Planner

Search our weather history database for the weather conditions in past years. The results will help you decide how hot, cold, wet, or windy it might be!

Date:

Astronomy

Jan. 02, 2013 Rise Set
Actual Time 10:52 AM AKST 3:08 PM AKST
Civil Twilight 9:34 AM AKST 4:27 PM AKST
Nautical Twilight 8:25 AM AKST 5:36 PM AKST
Astronomical Twilight 7:24 AM AKST 6:36 PM AKST
Moon 11:29 PM AKST (1/2) 11:13 AM AKST (1/2)
Length of Visible Light 6h 53m
Length of Day
4h 16m
Waning Gibbous, 74% of the Moon is Illuminated
Jan 2
Waning Gibbous
Jan 4
Last Quarter
Jan 11
New
Jan 18
First Quarter
Jan 26
Full

Hourly Weather History & Observations

Time (AKST) Temp. Windchill Dew Point Humidity Pressure Visibility Wind Dir Wind Speed Gust Speed Precip Events Conditions
12:53 AM 18.0 °F 12.7 °F 10.0 °F 71% 29.18 in 10.0 mi West 3.5 mph - N/A   Clear
1:53 AM 15.1 °F 7.7 °F 8.1 °F 74% 29.22 in 10.0 mi Variable 4.6 mph - N/A   Clear
3:53 AM 12.0 °F 4.1 °F 6.1 °F 77% 29.27 in 10.0 mi West 4.6 mph - N/A   Clear
4:53 AM 10.9 °F 4.7 °F 5.0 °F 77% 29.29 in 10.0 mi West 3.5 mph - N/A   Clear
5:53 AM 10.9 °F 4.7 °F 5.0 °F 77% 29.31 in 10.0 mi West 3.5 mph - N/A   Clear
6:53 AM 9.0 °F - 5.0 °F 84% 29.33 in 10.0 mi Calm Calm - N/A   Clear
7:53 AM 5.0 °F - 1.9 °F 87% 29.34 in 10.0 mi Calm Calm - N/A   Clear
8:53 AM 5.0 °F - 1.0 °F 84% 29.36 in 10.0 mi Calm Calm - N/A   Clear
9:53 AM 3.0 °F - -0.0 °F 87% 29.37 in 10.0 mi Calm Calm - N/A   Clear
10:53 AM 3.0 °F - -0.9 °F 84% 29.40 in 10.0 mi Calm Calm - N/A   Clear
11:53 AM 3.9 °F - 1.0 °F 88% 29.40 in - Calm Calm - N/A   Unknown
12:53 PM 6.1 °F - 1.9 °F 83% 29.42 in - Calm Calm - N/A   Clear
1:53 PM 8.1 °F - 3.0 °F 80% 29.44 in 10.0 mi Calm Calm - N/A   Clear
2:53 PM 7.0 °F 0.1 °F 3.0 °F 84% 29.45 in 10.0 mi Variable 3.5 mph - N/A   Clear
3:53 PM 6.1 °F - 1.0 °F 80% 29.46 in 10.0 mi Calm Calm - N/A   Clear
4:53 PM 3.0 °F - -2.0 °F 80% 29.48 in 10.0 mi Calm Calm - N/A   Clear
5:53 PM -0.0 °F - -5.1 °F 79% 29.49 in 10.0 mi Calm Calm - N/A   Clear
6:53 PM -0.9 °F - -6.0 °F 79% 29.50 in 10.0 mi Calm Calm - N/A   Clear
7:53 PM -2.9 °F - -7.1 °F 82% 29.50 in 10.0 mi Calm Calm - N/A   Clear
8:53 PM -2.9 °F - -8.0 °F 79% 29.51 in 10.0 mi Calm Calm - N/A   Clear
9:53 PM 19.9 °F 9.3 °F 12.0 °F 71% 29.51 in 10.0 mi East 9.2 mph - N/A   Clear
10:53 PM 24.1 °F 13.1 °F 14.0 °F 65% 29.51 in 10.0 mi ENE 11.5 mph - N/A   Clear
11:53 PM 25.0 °F 14.8 °F 15.1 °F 66% 29.52 in 10.0 mi East 10.4 mph - N/A   Clear